Regional Weather Roundup
Issued by NWS

Home | Current Version | Previous Version | Text Only | Print | Product List | Glossary On
Versions: 1 2 3 4 5 6 7 8 9 10 11 12 13 14 15 16 17 18 19 20 21 22 23 24 25 26 27 28 29 30 31 32 33 34 35 36 37 38 39 40 41 42 43 44 45 46 47 48 49 50
000
ASUS43 KDTX 231901
RWRMI
MICHIGAN HOURLY REGIONAL WEATHER ROUNDUP
NATIONAL WEATHER SERVICE DETROIT/PONTIAC MI
300 PM EDT SUN APR 23 2017

NOTE: "FAIR" INDICATES FEW OR NO CLOUDS BELOW 12,000 FEET WITH NO
SIGNIFICANT WEATHER AND/OR OBSTRUCTION TO VISIBILITY.

MIZ047>049-052>055-059>063-066>070-074>076-081>083-232000-
SOUTHEAST LOWER MICHIGAN

CITY           SKY/WX    TMP DP  RH WIND       PRES   REMARKS
ADRIAN         SUNNY     66  35  31 NE5       30.07F
ALMA           SUNNY     67  29  24 W6        30.05F
ANN ARBOR      SUNNY     67  34  29 VRB6      30.05F
BAD AXE        SUNNY     64  37  37 NE20G25   30.06R
CARO           SUNNY     69  32  25 W9        30.04F
DETROIT CITY   SUNNY     65  35  33 SE10      30.06F
DETROIT        MOSUNNY   67  32  27 S6        30.07F
FLINT          SUNNY     67  29  24 W8        30.06F
GROSSE ILE     SUNNY     56  42  59 S10       30.08S
HILLSDALE      SUNNY     64  30  27 CALM      30.06S
HOWELL         SUNNY     67  19  16 N5        30.05F

CITY           SKY/WX    TMP DP  RH WIND       PRES   REMARKS
JACKSON        SUNNY     67  29  24 NW6       30.06F
LAMBERTVILLE   SUNNY     62  30  30 SE8       30.08S
LANSING        SUNNY     68  30  24 NW7       30.06F
LAPEER         FAIR      68  26  20 W12       30.05F
MASON          SUNNY     67  30  25 NW5       30.06F
MONROE         SUNNY     60  37  42 SE14G20   30.08S
MT. CLEMENS    MOSUNNY   64  36  35 SE10      30.05F
PONTIAC        MOSUNNY   67  28  23 VRB3      30.04F
PORT HOPE        N/A     46  40  79 NE13      30.08R
PORT HURON     SUNNY     68  28  22 W8        30.05F
TRI CITIES     SUNNY     69  34  27 NW13      30.04F
MIDLAND        FAIR      70  31  23 SW5       30.02F
TROY           SUNNY     69  23  17 W6        30.07F
SAGINAW HB     SUNNY     68  28  22 SW5       30.04F
$$
MIZ043>046-050>051-056>058-064>065-071>073-077>080-232000-
SOUTHWEST LOWER MICHIGAN

CITY           SKY/WX    TMP DP  RH WIND       PRES   REMARKS
BATTLE CREEK   SUNNY     68  27  21 NW9       30.07F
BENTON HARBOR  SUNNY     64  24  21 NW7       30.08F
BIG RAPIDS     SUNNY     66  29  24 SW6G21    30.04S
COLDWATER      SUNNY     66  33  29 E6        30.06F
FREMONT        FAIR      66  27  23 SW7       30.05F
HOLLAND        SUNNY     63  34  33 NW10      30.09F
GRAND RAPIDS   SUNNY     68  32  26 W9        30.06F
IONIA          FAIR      67  28  22 W9        30.05F
KALAMAZOO      SUNNY     69  25  19 N6        30.06F
LUDINGTON      SUNNY     53  40  62 NW7       30.07F
MARSHALL       SUNNY     70  28  20 W7        30.05F
MOUNT PLEASANT SUNNY     69  33  26 W10       30.03F
MUSKEGON       MOSUNNY   61  32  33 VRB6      30.08F
SOUTH HAVEN    SUNNY     63  28  26 NW6       30.08F
$$
MIZ016>042-232000-
NORTHERN LOWER MICHIGAN

CITY           SKY/WX    TMP DP  RH WIND       PRES   REMARKS
ALPENA         SUNNY     54  39  57 N15       30.08F
BEAVER ISLAND  CLOUDY    41  32  69 NE10      30.15F
BELLAIRE       SUNNY     51  35  53 N7        30.10F
CADILLAC       SUNNY     62  40  44 N8        30.04F
CHARLEVOIX     PTSUNNY   41  35  77 N12       30.18R
FRANKFORT      SUNNY     47  34  62 N9G20     30.10S
GAYLORD        MOSUNNY   56  35  45 MISG      30.06F
GRAYLING       SUNNY     62  38  40 W12G18    30.05F
HARBOR SPRINGS MOSUNNY   48  33  56 N9        30.12R
HOUGHTON LAKE  SUNNY     65  36  34 NW10      30.04F
MANISTEE       SUNNY     53  41  63 W10       30.07F
OSCODA         SUNNY     53  37  54 NE17G23   30.07S
PELLSTON       CLOUDY    47  31  53 N14G22    30.13S
ROGERS CITY    MOSUNNY   46  35  65 N12       30.13S
TRAVERSE CITY  MOSUNNY   47  34  60 N12       30.11F
$$
MIZ007>008-015-232000-
EASTERN UPPER MICHIGAN

CITY           SKY/WX    TMP DP  RH WIND       PRES   REMARKS
KINROSS        MOSUNNY   40  27  59 NW17      30.13S WCI  31
MACKINAC ISLAN CLOUDY    43  30  61 VRB10     30.13S
NEWBERRY       PTSUNNY   37  24  61 N12G20    30.16S WCI  29
S. S. MARIE    MOSUNNY   39  28  64 NW15      30.13R WCI  31
MUNISING         N/A     34  23  64 NE17      30.20F WCI  23
$$
MIZ004>006-011>014-085-232000-
CENTRAL UPPER MICHIGAN

CITY           SKY/WX    TMP DP  RH WIND       PRES   REMARKS
MANISTIQUE     CLOUDY    39  25  55 N15       30.16S WCI  31
ESCANABA       CLOUDY    39  29  67 NE12      30.18R WCI  32
MENOMINEE      MOSUNNY   41  32  70 E17       30.16F
SAWYER-GWINN   CLOUDY    32  23  69 N10G18    30.19R WCI  24
$$
MIZ001>003-009>011-084-232000-
WESTERN UPPER MICHIGAN

CITY           SKY/WX    TMP DP  RH WIND       PRES   REMARKS
IRON MOUNTAIN  CLOUDY    40  27  59 NE8       30.14F WCI  34
HOUGHTON       CLOUDY    34  26  72 SE5       30.19F WCI  30
COPPER HARBOR    N/A     33  23  66 NE10      30.23F WCI  25
IRONWOOD       LGT RAIN  38  32  79 E6        30.15F WCI  33
$$

ABBREVIATIONS USED IN REMARKS
   TC - TEMPERATURE IN CELSIUS
  WCI - WIND CHILL INDEX
   HX - HEAT INDEX
  VSB - VISIBILITY





USA.gov is the U.S. government's official web portal to all federal, state and local government web resources and services.